This is the latest recevied weather packets stored in our database for station/object NC4M. If no packets are shown the sender has not sent any weather packets the latest 10 day(s).
| Time | Temp. | Humidity | Pressure | Rain* | Wind** | Luminosity | Snow |
|---|---|---|---|---|---|---|---|
| 1788136454 | 27.22° C | 69% | 1015.2 hPa | 0 mm | - | 5 W/m² | - |
| 1788136153 | 27.78° C | 67% | 1015.1 hPa | 0 mm | - | 7 W/m² | - |
| 1788135853 | 27.78° C | 67% | 1015.2 hPa | 0 mm | - | 10 W/m² | - |
| 1788135548 | 28.33° C | 65% | 1015.1 hPa | 0 mm | - | 13 W/m² | - |
| 1788135243 | 28.89° C | 64% | 1015.2 hPa | 0 mm | - | 16 W/m² | - |
| 1788134940 | 29.44° C | 63% | 1015.2 hPa | 0 mm | - | 19 W/m² | - |
| 1788134636 | 29.44° C | 57% | 1015.2 hPa | 0 mm | - | 22 W/m² | - |
| 1788134334 | 30° C | 55% | 1015.1 hPa | 0 mm | - | 26 W/m² | - |
| 1788134028 | 30° C | 55% | 1015.2 hPa | 0 mm | - | 29 W/m² | - |
| 1788133724 | 30.56° C | 56% | 1015.2 hPa | 0 mm | - | 32 W/m² | - |
| 1788133420 | 30.56° C | 52% | 1015.3 hPa | 0 mm | - | 35 W/m² | - |
| 1788133115 | 31.11° C | 50% | 1015.2 hPa | 0 mm | - | 36 W/m² | - |
| 1788132811 | 31.11° C | 50% | 1015.3 hPa | 0 mm | - | 37 W/m² | - |
| 1788132506 | 31.67° C | 50% | 1015.4 hPa | 0 mm | - | 38 W/m² | - |
| 1788132202 | 31.67° C | 50% | 1015.3 hPa | 0 mm | - | 40 W/m² | - |
| 1788131898 | 32.22° C | 47% | 1015.2 hPa | 0 mm | - | 43 W/m² | - |
| 1788131599 | 32.22° C | 47% | 1015.2 hPa | 0 mm | - | 45 W/m² | - |
| 1788131293 | 32.22° C | 46% | 1015.3 hPa | 0 mm | - | 47 W/m² | - |
| 1788130988 | 32.22° C | 47% | 1015.2 hPa | 0 mm | - | 51 W/m² | - |
| 1788130688 | 32.78° C | 45% | 1015.1 hPa | 0 mm | - | 61 W/m² | - |
| 1788130383 | 32.78° C | 46% | 1015 hPa | 0 mm | - | 55 W/m² | - |
| 1788130082 | 33.33° C | 46% | 1015.2 hPa | 0 mm | - | 57 W/m² | - |
| 1788129777 | 33.89° C | 43% | 1015.2 hPa | 0 mm | - | 68 W/m² | - |
| 1788129474 | 33.89° C | 42% | 1015 hPa | 0 mm | - | 69 W/m² | - |
| 1788129170 | 34.44° C | 41% | 1015.3 hPa | 0 mm | - | 83 W/m² | - |
* Rain latest hour (hover to see other rain measurements)
** Current wind speed in m/s (hover to see current wind gust speed)